Tracking 31027 objects as of 19-Jul-2025
HD Live streaming from Space Station
objects crossing your sky now

STARLINK-31971

Track STARLINK-31971 now!
10-day predictions
STARLINK-31971 is classified as:


NORAD ID: 59934
Int'l Code: 2024-106N
Perigee: 489.2 km
Apogee: 491.1 km
Inclination: 43.0 °
Period: 94.3 minutes
Semi major axis: 6861 km
RCS: Unknown
Launch date: June 1, 2024
Source: United States (US)
Launch site: AIR FORCE EASTERN TEST RANGE (AFETR)
Your satellite tracking list
COSMOS 1743
Track 1 satellite(s)




NASA's NSSDC Master Catalog

Two Line Element Set (TLE):
1 59934U 24106N   25199.44674034  .00000970  00000-0  44780-4 0  9994
2 59934  43.0001 212.1999 0001365 273.6462  86.4234 15.27582392 64616
Source of the keplerian elements: AFSPC